TimePST,TemperatureF,Dew PointF,Humidity,Sea Level PressureIn,VisibilityMPH,Wind Direction,Wind SpeedMPH,Gust SpeedMPH,PrecipitationIn,Events,Conditions,WindDirDegrees,DateUTC
12:56 AM,24.1,21.9,91,30.14,1.0,WSW,4.6,-,N/A,,Mist,240,2013-02-08 08:56:00
1:16 AM,24.8,21.2,86,30.04,1.8,WSW,4.6,-,N/A,,Overcast,240,2013-02-08 09:16:00
1:56 AM,24.1,21.9,91,30.15,1.2,Variable,6.9,-,N/A,,Mostly Cloudy,0,2013-02-08 09:56:00
2:31 AM,24.8,21.2,86,30.05,1.5,Variable,4.6,-,N/A,,Overcast,0,2013-02-08 10:31:00
3:25 AM,24.8,21.2,86,30.05,0.8,Variable,4.6,-,N/A,,Mist,0,2013-02-08 11:25:00
4:15 AM,24.8,21.2,86,30.06,1.0,WSW,5.8,-,N/A,,Mist,240,2013-02-08 12:15:00
6:56 AM,24.1,21.0,88,30.20,0.5,Variable,4.6,-,N/A,Fog,Light Freezing Fog,0,2013-02-08 14:56:00
8:56 AM,25.0,21.9,88,30.22,0.5,Variable,5.8,-,N/A,Fog,Light Freezing Fog,0,2013-02-08 16:56:00
9:25 AM,24.8,21.2,86,30.11,1.5,Variable,5.8,-,N/A,,Overcast,0,2013-02-08 17:25:00
9:56 AM,25.0,24.1,96,30.22,9.0,Variable,5.8,-,N/A,,Mostly Cloudy,0,2013-02-08 17:56:00
10:27 AM,26.6,24.8,93,30.12,2.0,Variable,5.8,-,N/A,,Mostly Cloudy,0,2013-02-08 18:27:00
11:56 AM,27.0,25.0,92,30.22,10.0,Variable,6.9,-,N/A,,Overcast,0,2013-02-08 19:56:00
12:31 PM,26.6,24.8,93,30.11,10.0,WSW,8.1,-,N/A,,Mostly Cloudy,250,2013-02-08 20:31:00
12:54 PM,26.6,24.8,93,30.11,10.0,Variable,5.8,-,N/A,,Overcast,0,2013-02-08 20:54:00
12:56 PM,27.0,24.1,89,30.21,10.0,Variable,5.8,-,N/A,,Overcast,0,2013-02-08 20:56:00
1:03 PM,26.6,24.8,93,30.11,10.0,Variable,4.6,-,N/A,,Overcast,0,2013-02-08 21:03:00
3:47 PM,26.6,23.0,86,30.11,10.0,Variable,4.6,-,N/A,,Overcast,0,2013-02-08 23:47:00
8:17 PM,24.8,23.0,93,30.11,6.0,West,8.1,-,N/A,,Overcast,280,2013-02-09 04:17:00
9:23 PM,24.8,23.0,93,30.12,4.0,West,5.8,-,N/A,,Overcast,270,2013-02-09 05:23:00
9:32 PM,24.8,21.2,86,30.11,10.0,Variable,4.6,-,N/A,,Overcast,0,2013-02-09 05:32:00
9:49 PM,24.8,21.2,86,30.11,2.5,Variable,5.8,-,N/A,,Overcast,0,2013-02-09 05:49:00
11:23 PM,24.8,21.2,86,30.11,7.0,Variable,5.8,-,N/A,,Overcast,0,2013-02-09 07:23:00